Year,Month,Day,Hour,Minute,Value (Times are PST for temperature in C)
2010,10,15,00,00,9.70
2010,10,15,00,01,9.70
2010,10,15,00,02,9.70
2010,10,15,00,03,9.60
2010,10,15,00,04,9.60
2010,10,15,00,05,9.60
2010,10,15,00,06,9.60
2010,10,15,00,07,9.60
2010,10,15,00,08,9.60
2010,10,15,00,09,9.50
2010,10,15,00,10,9.50
2010,10,15,00,11,9.50
2010,10,15,00,12,9.50
2010,10,15,00,13,9.50
2010,10,15,00,14,9.40
2010,10,15,00,15,9.40
2010,10,15,00,16,9.40
2010,10,15,00,17,9.40
2010,10,15,00,18,9.30
2010,10,15,00,19,9.30
2010,10,15,00,20,9.30
2010,10,15,00,21,9.30
2010,10,15,00,22,9.20
2010,10,15,00,23,9.20
2010,10,15,00,24,9.20
2010,10,15,00,25,9.20
2010,10,15,00,26,9.20
2010,10,15,00,27,9.20
2010,10,15,00,28,9.20
2010,10,15,00,29,9.20
2010,10,15,00,30,9.20
2010,10,15,00,31,9.20
2010,10,15,00,32,9.10
2010,10,15,00,33,9.10
2010,10,15,00,34,9.10
2010,10,15,00,35,9.10
2010,10,15,00,36,9.10
2010,10,15,00,37,9.10
2010,10,15,00,38,9.10
2010,10,15,00,39,9.10
2010,10,15,00,40,9.10
2010,10,15,00,41,9.00
2010,10,15,00,42,9.00
2010,10,15,00,43,9.00
2010,10,15,00,44,9.00
2010,10,15,00,45,9.00
2010,10,15,00,46,9.00
2010,10,15,00,47,9.00
2010,10,15,00,48,9.00
2010,10,15,00,49,8.90
2010,10,15,00,50,8.90
2010,10,15,00,51,8.90
2010,10,15,00,52,8.90
2010,10,15,00,53,8.90
2010,10,15,00,54,8.90
2010,10,15,00,55,8.90
2010,10,15,00,56,8.90
2010,10,15,00,57,8.90
2010,10,15,00,58,8.80
2010,10,15,00,59,8.80
2010,10,15,01,00,8.80
2010,10,15,01,01,8.80
2010,10,15,01,02,8.80
2010,10,15,01,03,8.80
2010,10,15,01,04,8.80
2010,10,15,01,05,8.70
2010,10,15,01,06,8.70
2010,10,15,01,07,8.70
2010,10,15,01,08,8.70
2010,10,15,01,09,8.70
2010,10,15,01,10,8.70
2010,10,15,01,11,8.70
2010,10,15,01,12,8.70
2010,10,15,01,13,8.70
2010,10,15,01,14,8.60
2010,10,15,01,15,8.60
2010,10,15,01,16,8.60
2010,10,15,01,17,8.50
2010,10,15,01,18,8.50
2010,10,15,01,19,8.40
2010,10,15,01,20,8.40
2010,10,15,01,21,8.30
2010,10,15,01,22,8.30
2010,10,15,01,23,8.20
2010,10,15,01,24,8.20
2010,10,15,01,25,8.20
2010,10,15,01,26,8.20
2010,10,15,01,27,8.20
2010,10,15,01,28,8.10
2010,10,15,01,29,8.10
2010,10,15,01,30,8.10
2010,10,15,01,31,8.10
2010,10,15,01,32,8.00
2010,10,15,01,33,8.00
2010,10,15,01,34,8.00
2010,10,15,01,35,8.00
2010,10,15,01,36,8.00
2010,10,15,01,37,8.00
2010,10,15,01,38,8.00
2010,10,15,01,39,8.00
2010,10,15,01,40,8.00
2010,10,15,01,41,8.00
2010,10,15,01,42,8.00
2010,10,15,01,43,8.00
2010,10,15,01,44,8.00
2010,10,15,01,45,8.00
2010,10,15,01,46,8.00
2010,10,15,01,47,7.90
2010,10,15,01,48,7.90
2010,10,15,01,49,7.90
2010,10,15,01,50,7.90
2010,10,15,01,51,7.90
2010,10,15,01,52,7.80
2010,10,15,01,53,7.80
2010,10,15,01,54,7.80
2010,10,15,01,55,7.80
2010,10,15,01,56,7.80
2010,10,15,01,57,7.80
2010,10,15,01,58,7.80
2010,10,15,01,59,7.80
2010,10,15,02,00,7.80
2010,10,15,02,01,7.80
2010,10,15,02,02,7.80
2010,10,15,02,03,7.80
2010,10,15,02,04,7.80
2010,10,15,02,05,7.80
2010,10,15,02,06,7.90
2010,10,15,02,07,7.90
2010,10,15,02,08,7.90
2010,10,15,02,09,7.90
2010,10,15,02,10,8.00
2010,10,15,02,11,8.00
2010,10,15,02,12,8.00
2010,10,15,02,13,8.00
2010,10,15,02,14,8.00
2010,10,15,02,15,8.10
2010,10,15,02,16,8.10
2010,10,15,02,17,8.10
2010,10,15,02,18,8.10
2010,10,15,02,19,8.10
2010,10,15,02,20,8.00
2010,10,15,02,21,8.00
2010,10,15,02,22,8.00
2010,10,15,02,23,8.00
2010,10,15,02,24,8.00
2010,10,15,02,25,8.10
2010,10,15,02,26,8.10
2010,10,15,02,27,8.10
2010,10,15,02,28,8.10
2010,10,15,02,29,8.10
2010,10,15,02,30,8.10
2010,10,15,02,31,8.10
2010,10,15,02,32,8.00
2010,10,15,02,33,8.00
2010,10,15,02,34,8.00
2010,10,15,02,35,8.00
2010,10,15,02,36,8.00
2010,10,15,02,37,8.00
2010,10,15,02,38,8.00
2010,10,15,02,39,8.00
2010,10,15,02,40,8.00
2010,10,15,02,41,8.10
2010,10,15,02,42,8.10
2010,10,15,02,43,8.00
2010,10,15,02,44,8.00
2010,10,15,02,45,8.00
2010,10,15,02,46,8.00
2010,10,15,02,47,8.00
2010,10,15,02,48,8.00
2010,10,15,02,49,8.00
2010,10,15,02,50,8.00
2010,10,15,02,51,8.00
2010,10,15,02,52,7.90
2010,10,15,02,53,7.90
2010,10,15,02,54,7.90
2010,10,15,02,55,7.90
2010,10,15,02,56,7.90
2010,10,15,02,57,7.90
2010,10,15,02,58,7.90
2010,10,15,02,59,7.80
2010,10,15,03,00,7.80
2010,10,15,03,01,7.80
2010,10,15,03,02,7.80
2010,10,15,03,03,7.80
2010,10,15,03,04,7.80
2010,10,15,03,05,7.80
2010,10,15,03,06,7.80
2010,10,15,03,07,7.80
2010,10,15,03,08,7.80
2010,10,15,03,09,7.80
2010,10,15,03,10,7.80
2010,10,15,03,11,7.80
2010,10,15,03,12,7.80
2010,10,15,03,13,7.80
2010,10,15,03,14,7.80
2010,10,15,03,15,7.80
2010,10,15,03,16,7.80
2010,10,15,03,17,7.80
2010,10,15,03,18,7.70
2010,10,15,03,19,7.70
2010,10,15,03,20,7.70
2010,10,15,03,21,7.70
2010,10,15,03,22,7.70
2010,10,15,03,23,7.70
2010,10,15,03,24,7.70
2010,10,15,03,25,7.70
2010,10,15,03,26,7.80
2010,10,15,03,27,7.80
2010,10,15,03,28,7.80
2010,10,15,03,29,7.80
2010,10,15,03,30,7.80
2010,10,15,03,31,7.80
2010,10,15,03,32,7.80
2010,10,15,03,33,7.80
2010,10,15,03,34,7.80
2010,10,15,03,35,7.80
2010,10,15,03,36,7.80
2010,10,15,03,37,7.90
2010,10,15,03,38,7.90
2010,10,15,03,39,7.90
2010,10,15,03,40,7.90
2010,10,15,03,41,8.00
2010,10,15,03,42,8.00
2010,10,15,03,43,8.10
2010,10,15,03,44,8.10
2010,10,15,03,45,8.10
2010,10,15,03,46,8.10
2010,10,15,03,47,8.10
2010,10,15,03,48,8.20
2010,10,15,03,49,8.20
2010,10,15,03,50,8.20
2010,10,15,03,51,8.20
2010,10,15,03,52,8.20
2010,10,15,03,53,8.20
2010,10,15,03,54,8.10
2010,10,15,03,55,8.10
2010,10,15,03,56,8.10
2010,10,15,03,57,8.10
2010,10,15,03,58,8.10
2010,10,15,03,59,8.00
2010,10,15,04,00,8.00
2010,10,15,04,01,8.00
2010,10,15,04,02,8.00
2010,10,15,04,03,7.90
2010,10,15,04,04,7.90
2010,10,15,04,05,7.90
2010,10,15,04,06,7.90
2010,10,15,04,07,7.90
2010,10,15,04,08,7.80
2010,10,15,04,09,7.80
2010,10,15,04,10,7.80
2010,10,15,04,11,7.80
2010,10,15,04,12,7.80
2010,10,15,04,13,7.80
2010,10,15,04,14,7.70
2010,10,15,04,15,7.70
2010,10,15,04,16,7.70
2010,10,15,04,17,7.70
2010,10,15,04,18,7.60
2010,10,15,04,19,7.60
2010,10,15,04,20,7.60
2010,10,15,04,21,7.60
2010,10,15,04,22,7.50
2010,10,15,04,23,7.50
2010,10,15,04,24,7.50
2010,10,15,04,25,7.50
2010,10,15,04,26,7.50
2010,10,15,04,27,7.50
2010,10,15,04,28,7.50
2010,10,15,04,29,7.50
2010,10,15,04,30,7.40
2010,10,15,04,31,7.40
2010,10,15,04,32,7.40
2010,10,15,04,33,7.40
2010,10,15,04,34,7.30
2010,10,15,04,35,7.30
2010,10,15,04,36,7.30
2010,10,15,04,37,7.30
2010,10,15,04,38,7.30
2010,10,15,04,39,7.30
2010,10,15,04,40,7.30
2010,10,15,04,41,7.30
2010,10,15,04,42,7.30
2010,10,15,04,43,7.20
2010,10,15,04,44,7.20
2010,10,15,04,45,7.20
2010,10,15,04,46,7.20
2010,10,15,04,47,7.20
2010,10,15,04,48,7.10
2010,10,15,04,49,7.10
2010,10,15,04,50,7.10
2010,10,15,04,51,7.00
2010,10,15,04,52,7.00
2010,10,15,04,53,7.00
2010,10,15,04,54,7.00
2010,10,15,04,55,7.00
2010,10,15,04,56,6.90
2010,10,15,04,57,6.90
2010,10,15,04,58,6.90
2010,10,15,04,59,6.90
2010,10,15,05,00,6.90
2010,10,15,05,01,6.90
2010,10,15,05,02,6.90
2010,10,15,05,03,6.90
2010,10,15,05,04,6.90
2010,10,15,05,05,6.90
2010,10,15,05,06,6.90
2010,10,15,05,07,6.80
2010,10,15,05,08,6.80
2010,10,15,05,09,6.80
2010,10,15,05,10,6.80
2010,10,15,05,11,6.80
2010,10,15,05,12,6.80
2010,10,15,05,13,6.70
2010,10,15,05,14,6.70
2010,10,15,05,15,6.70
2010,10,15,05,16,6.60
2010,10,15,05,17,6.60
2010,10,15,05,18,6.60
2010,10,15,05,19,6.60
2010,10,15,05,20,6.60
2010,10,15,05,21,6.60
2010,10,15,05,22,6.60
2010,10,15,05,23,6.70
2010,10,15,05,24,6.70
2010,10,15,05,25,6.70
2010,10,15,05,26,6.70
2010,10,15,05,27,6.70
2010,10,15,05,28,6.70
2010,10,15,05,29,6.70
2010,10,15,05,30,6.70
2010,10,15,05,31,6.70
2010,10,15,05,32,6.70
2010,10,15,05,33,6.70
2010,10,15,05,34,6.60
2010,10,15,05,35,6.60
2010,10,15,05,36,6.60
2010,10,15,05,37,6.60
2010,10,15,05,38,6.60
2010,10,15,05,39,6.60
2010,10,15,05,40,6.60
2010,10,15,05,41,6.60
2010,10,15,05,42,6.60
2010,10,15,05,43,6.40
2010,10,15,05,44,6.40
2010,10,15,05,45,6.40
2010,10,15,05,46,6.40
2010,10,15,05,47,6.40
2010,10,15,05,48,6.40
2010,10,15,05,49,6.40
2010,10,15,05,50,6.40
2010,10,15,05,51,6.40
2010,10,15,05,52,6.50
2010,10,15,05,53,6.60
2010,10,15,05,54,6.60
2010,10,15,05,55,6.60
2010,10,15,05,56,6.60
2010,10,15,05,57,6.60
2010,10,15,05,58,6.60
2010,10,15,05,59,6.60
2010,10,15,06,00,6.60
2010,10,15,06,01,6.60
2010,10,15,06,02,6.60
2010,10,15,06,03,6.50
2010,10,15,06,04,6.40
2010,10,15,06,05,6.30
2010,10,15,06,06,6.20
2010,10,15,06,07,6.10
2010,10,15,06,08,6.00
2010,10,15,06,09,6.00
2010,10,15,06,10,6.00
2010,10,15,06,11,5.90
2010,10,15,06,12,5.90
2010,10,15,06,13,5.80
2010,10,15,06,14,5.80
2010,10,15,06,15,5.70
2010,10,15,06,16,5.70
2010,10,15,06,17,5.70
2010,10,15,06,18,5.70
2010,10,15,06,19,5.70
2010,10,15,06,20,5.70
2010,10,15,06,21,5.70
2010,10,15,06,22,5.70
2010,10,15,06,23,5.80
2010,10,15,06,24,5.80
2010,10,15,06,25,5.80
2010,10,15,06,26,5.90
2010,10,15,06,27,5.90
2010,10,15,06,28,6.00
2010,10,15,06,29,6.00
2010,10,15,06,30,6.00
2010,10,15,06,31,6.00
2010,10,15,06,32,6.00
2010,10,15,06,33,6.00
2010,10,15,06,34,6.10
2010,10,15,06,35,6.10
2010,10,15,06,36,6.00
2010,10,15,06,37,6.00
2010,10,15,06,38,5.90
2010,10,15,06,39,5.80
2010,10,15,06,40,5.70
2010,10,15,06,41,5.70
2010,10,15,06,42,5.70
2010,10,15,06,43,5.60
2010,10,15,06,44,5.50
2010,10,15,06,45,5.50
2010,10,15,06,46,5.40
2010,10,15,06,47,5.30
2010,10,15,06,48,5.30
2010,10,15,06,49,5.30
2010,10,15,06,50,5.20
2010,10,15,06,51,5.20
2010,10,15,06,52,5.10
2010,10,15,06,53,5.10
2010,10,15,06,54,5.10
2010,10,15,06,55,5.00
2010,10,15,06,56,4.90
2010,10,15,06,57,4.90
2010,10,15,06,58,4.90
2010,10,15,06,59,4.80
2010,10,15,07,00,4.80
2010,10,15,07,01,4.90
2010,10,15,07,02,5.10
2010,10,15,07,03,5.20
2010,10,15,07,04,5.40
2010,10,15,07,05,5.50
2010,10,15,07,06,5.60
2010,10,15,07,07,5.70
2010,10,15,07,08,5.80
2010,10,15,07,09,5.80
2010,10,15,07,10,5.80
2010,10,15,07,11,5.80
2010,10,15,07,12,5.80
2010,10,15,07,13,5.80
2010,10,15,07,14,5.70
2010,10,15,07,15,5.70
2010,10,15,07,16,5.60
2010,10,15,07,17,5.50
2010,10,15,07,18,5.40
2010,10,15,07,19,5.30
2010,10,15,07,20,5.20
2010,10,15,07,21,5.20
2010,10,15,07,22,5.10
2010,10,15,07,23,5.10
2010,10,15,07,24,5.10
2010,10,15,07,25,5.10
2010,10,15,07,26,5.10
2010,10,15,07,27,5.10
2010,10,15,07,28,5.00
2010,10,15,07,29,4.90
2010,10,15,07,30,4.90
2010,10,15,07,31,4.90
2010,10,15,07,32,4.90
2010,10,15,07,33,4.80
2010,10,15,07,34,4.80
2010,10,15,07,35,4.70
2010,10,15,07,36,4.70
2010,10,15,07,37,4.60
2010,10,15,07,38,4.60
2010,10,15,07,39,4.60
2010,10,15,07,40,4.60
2010,10,15,07,41,4.70
2010,10,15,07,42,4.70
2010,10,15,07,43,4.80
2010,10,15,07,44,4.80
2010,10,15,07,45,4.80
2010,10,15,07,46,4.80
2010,10,15,07,47,4.80
2010,10,15,07,48,4.80
2010,10,15,07,49,4.80
2010,10,15,07,50,4.80
2010,10,15,07,51,4.80
2010,10,15,07,52,4.80
2010,10,15,07,53,4.80
2010,10,15,07,54,4.80
2010,10,15,07,55,4.80
2010,10,15,07,56,4.90
2010,10,15,07,57,4.90
2010,10,15,07,58,4.90
2010,10,15,07,59,4.90
2010,10,15,08,00,5.00
2010,10,15,08,01,5.10
2010,10,15,08,02,5.10
2010,10,15,08,03,5.10
2010,10,15,08,04,5.10
2010,10,15,08,05,5.10
2010,10,15,08,06,5.10
2010,10,15,08,07,5.10
2010,10,15,08,08,5.10
2010,10,15,08,09,5.10
2010,10,15,08,10,5.10
2010,10,15,08,11,5.10
2010,10,15,08,12,5.10
2010,10,15,08,13,5.10
2010,10,15,08,14,5.10
2010,10,15,08,15,5.10
2010,10,15,08,16,5.10
2010,10,15,08,17,5.10
2010,10,15,08,18,5.10
2010,10,15,08,19,5.10
2010,10,15,08,20,5.20
2010,10,15,08,21,5.30
2010,10,15,08,22,5.40
2010,10,15,08,23,5.50
2010,10,15,08,24,5.50
2010,10,15,08,25,5.60
2010,10,15,08,26,5.70
2010,10,15,08,27,5.70
2010,10,15,08,28,5.70
2010,10,15,08,29,5.70
2010,10,15,08,30,5.70
2010,10,15,08,31,5.70
2010,10,15,08,32,5.70
2010,10,15,08,33,5.70
2010,10,15,08,34,5.70
2010,10,15,08,35,5.70
2010,10,15,08,36,5.70
2010,10,15,08,37,5.80
2010,10,15,08,38,5.80
2010,10,15,08,39,5.90
2010,10,15,08,40,5.90
2010,10,15,08,41,5.90
2010,10,15,08,42,6.00
2010,10,15,08,43,6.00
2010,10,15,08,44,6.10
2010,10,15,08,45,6.20
2010,10,15,08,46,6.20
2010,10,15,08,47,6.30
2010,10,15,08,48,6.40
2010,10,15,08,49,6.50
2010,10,15,08,50,6.60
2010,10,15,08,51,6.70
2010,10,15,08,52,6.70
2010,10,15,08,53,6.80
2010,10,15,08,54,6.80
2010,10,15,08,55,6.90
2010,10,15,08,56,6.90
2010,10,15,08,57,7.00
2010,10,15,08,58,7.10
2010,10,15,08,59,7.20
2010,10,15,09,00,7.20
2010,10,15,09,01,7.30
2010,10,15,09,02,7.40
2010,10,15,09,03,7.50
2010,10,15,09,04,7.60
2010,10,15,09,05,7.70
2010,10,15,09,06,7.80
2010,10,15,09,07,7.80
2010,10,15,09,08,7.80
2010,10,15,09,09,7.90
2010,10,15,09,10,7.90
2010,10,15,09,11,8.00
2010,10,15,09,12,8.00
2010,10,15,09,13,8.00
2010,10,15,09,14,8.10
2010,10,15,09,15,8.10
2010,10,15,09,16,8.20
2010,10,15,09,17,8.20
2010,10,15,09,18,8.30
2010,10,15,09,19,8.30
2010,10,15,09,20,8.40
2010,10,15,09,21,8.40
2010,10,15,09,22,8.50
2010,10,15,09,23,8.50
2010,10,15,09,24,8.60
2010,10,15,09,25,8.60
2010,10,15,09,26,8.70
2010,10,15,09,27,8.70
2010,10,15,09,28,8.70
2010,10,15,09,29,8.80
2010,10,15,09,30,8.80
2010,10,15,09,31,8.90
2010,10,15,09,32,8.90
2010,10,15,09,33,9.00
2010,10,15,09,34,9.00
2010,10,15,09,35,9.10
2010,10,15,09,36,9.20
2010,10,15,09,37,9.20
2010,10,15,09,38,9.30
2010,10,15,09,39,9.30
2010,10,15,09,40,9.40
2010,10,15,09,41,9.50
2010,10,15,09,42,9.50
2010,10,15,09,43,9.60
2010,10,15,09,44,9.70
2010,10,15,09,45,9.70
2010,10,15,09,46,9.70
2010,10,15,09,47,9.70
2010,10,15,09,48,9.80
2010,10,15,09,49,9.80
2010,10,15,09,50,9.80
2010,10,15,09,51,9.80
2010,10,15,09,52,9.90
2010,10,15,09,53,9.90
2010,10,15,09,54,9.90
2010,10,15,09,55,9.90
2010,10,15,09,56,9.90
2010,10,15,09,57,9.90
2010,10,15,09,58,9.90
2010,10,15,09,59,10.00
2010,10,15,10,00,10.10
2010,10,15,10,01,10.10
2010,10,15,10,02,10.10
2010,10,15,10,03,10.10
2010,10,15,10,04,10.10
2010,10,15,10,05,10.20
2010,10,15,10,06,10.20
2010,10,15,10,07,10.30
2010,10,15,10,08,10.30
2010,10,15,10,09,10.40
2010,10,15,10,10,10.40
2010,10,15,10,11,10.50
2010,10,15,10,12,10.60
2010,10,15,10,13,10.70
2010,10,15,10,14,10.70
2010,10,15,10,15,10.80
2010,10,15,10,16,10.90
2010,10,15,10,17,10.90
2010,10,15,10,18,11.00
2010,10,15,10,19,11.10
2010,10,15,10,20,11.20
2010,10,15,10,21,11.30
2010,10,15,10,22,11.40
2010,10,15,10,23,11.40
2010,10,15,10,24,11.40
2010,10,15,10,25,11.40
2010,10,15,10,26,11.40
2010,10,15,10,27,11.40
2010,10,15,10,28,11.40
2010,10,15,10,29,11.50
2010,10,15,10,30,11.60
2010,10,15,10,31,11.50
2010,10,15,10,32,11.50
2010,10,15,10,33,11.60
2010,10,15,10,34,11.60
2010,10,15,10,35,11.60
2010,10,15,10,36,11.60
2010,10,15,10,37,11.60
2010,10,15,10,38,11.60
2010,10,15,10,39,11.40
2010,10,15,10,40,11.50
2010,10,15,10,41,11.40
2010,10,15,10,42,11.40
2010,10,15,10,43,11.60
2010,10,15,10,44,11.60
2010,10,15,10,45,11.60
2010,10,15,10,46,11.60
2010,10,15,10,47,11.60
2010,10,15,10,48,11.60
2010,10,15,10,49,11.60
2010,10,15,10,50,11.60
2010,10,15,10,51,11.60
2010,10,15,10,52,11.60
2010,10,15,10,53,11.60
2010,10,15,10,54,11.60
2010,10,15,10,55,11.70
2010,10,15,10,56,11.70
2010,10,15,10,57,11.70
2010,10,15,10,58,11.70
2010,10,15,10,59,11.70
2010,10,15,11,00,11.80
2010,10,15,11,01,11.80
2010,10,15,11,02,11.80
2010,10,15,11,03,11.90
2010,10,15,11,04,11.90
2010,10,15,11,05,11.90
2010,10,15,11,06,12.00
2010,10,15,11,07,12.00
2010,10,15,11,08,12.10
2010,10,15,11,09,12.10
2010,10,15,11,10,12.10
2010,10,15,11,11,12.20
2010,10,15,11,12,12.20
2010,10,15,11,13,12.10
2010,10,15,11,14,12.10
2010,10,15,11,15,12.10
2010,10,15,11,16,12.10
2010,10,15,11,17,12.10
2010,10,15,11,18,12.10
2010,10,15,11,19,12.10
2010,10,15,11,20,12.10
2010,10,15,11,21,12.10
2010,10,15,11,22,12.20
2010,10,15,11,23,12.20
2010,10,15,11,24,12.10
2010,10,15,11,25,12.10
2010,10,15,11,26,12.10
2010,10,15,11,27,12.10
2010,10,15,11,28,12.10
2010,10,15,11,29,12.00
2010,10,15,11,30,12.00
2010,10,15,11,31,12.00
2010,10,15,11,32,12.00
2010,10,15,11,33,12.10
2010,10,15,11,34,12.10
2010,10,15,11,35,12.10
2010,10,15,11,36,12.10
2010,10,15,11,37,12.10
2010,10,15,11,38,12.00
2010,10,15,11,39,11.90
2010,10,15,11,40,12.00
2010,10,15,11,41,12.00
2010,10,15,11,42,12.10
2010,10,15,11,43,12.10
2010,10,15,11,44,12.20
2010,10,15,11,45,12.30
2010,10,15,11,46,12.30
2010,10,15,11,47,12.30
2010,10,15,11,48,12.30
2010,10,15,11,49,12.20
2010,10,15,11,50,12.30
2010,10,15,11,51,12.30
2010,10,15,11,52,12.20
2010,10,15,11,53,12.20
2010,10,15,11,54,12.20
2010,10,15,11,55,12.30
2010,10,15,11,56,12.30
2010,10,15,11,57,12.30
2010,10,15,11,58,12.30
2010,10,15,11,59,12.30
2010,10,15,12,00,12.30
2010,10,15,12,01,12.30
2010,10,15,12,02,12.30
2010,10,15,12,03,12.30
2010,10,15,12,04,12.30
2010,10,15,12,05,12.30
2010,10,15,12,06,12.30
2010,10,15,12,07,12.30
2010,10,15,12,08,12.30
2010,10,15,12,09,12.30
2010,10,15,12,10,12.30
2010,10,15,12,11,12.30
2010,10,15,12,12,12.30
2010,10,15,12,13,12.40
2010,10,15,12,14,12.50
2010,10,15,12,15,12.50
2010,10,15,12,16,12.60
2010,10,15,12,17,12.60
2010,10,15,12,18,12.60
2010,10,15,12,19,12.60
2010,10,15,12,20,12.60
2010,10,15,12,21,12.50
2010,10,15,12,22,12.50
2010,10,15,12,23,12.60
2010,10,15,12,24,12.60
2010,10,15,12,25,12.60
2010,10,15,12,26,12.50
2010,10,15,12,27,12.50
2010,10,15,12,28,12.50
2010,10,15,12,29,12.50
2010,10,15,12,30,12.40
2010,10,15,12,31,12.40
2010,10,15,12,32,12.30
2010,10,15,12,33,12.30
2010,10,15,12,34,12.30
2010,10,15,12,35,12.30
2010,10,15,12,36,12.30
2010,10,15,12,37,12.30
2010,10,15,12,38,12.30
2010,10,15,12,39,12.30
2010,10,15,12,40,12.30
2010,10,15,12,41,12.30
2010,10,15,12,42,12.30
2010,10,15,12,43,12.30
2010,10,15,12,44,12.30
2010,10,15,12,45,12.30
2010,10,15,12,46,12.30
2010,10,15,12,47,12.30
2010,10,15,12,48,12.40
2010,10,15,12,49,12.40
2010,10,15,12,50,12.40
2010,10,15,12,51,12.40
2010,10,15,12,52,12.40
2010,10,15,12,53,12.40
2010,10,15,12,54,12.40
2010,10,15,12,55,12.40
2010,10,15,12,56,12.40
2010,10,15,12,57,12.40
2010,10,15,12,58,12.50
2010,10,15,12,59,12.40
2010,10,15,13,00,12.50
2010,10,15,13,01,12.50
2010,10,15,13,02,12.40
2010,10,15,13,03,12.50
2010,10,15,13,04,12.50
2010,10,15,13,05,12.50
2010,10,15,13,06,12.50
2010,10,15,13,07,12.50
2010,10,15,13,08,12.60
2010,10,15,13,09,12.60
2010,10,15,13,10,12.60
2010,10,15,13,11,12.70
2010,10,15,13,12,12.60
2010,10,15,13,13,12.60
2010,10,15,13,14,12.60
2010,10,15,13,15,12.60
2010,10,15,13,16,12.60
2010,10,15,13,17,12.60
2010,10,15,13,18,12.60
2010,10,15,13,19,12.50
2010,10,15,13,20,12.50
2010,10,15,13,21,12.40
2010,10,15,13,22,12.40
2010,10,15,13,23,12.40
2010,10,15,13,24,12.50
2010,10,15,13,25,12.40
2010,10,15,13,26,12.40
2010,10,15,13,27,12.40
2010,10,15,13,28,12.40
2010,10,15,13,29,12.40
2010,10,15,13,30,12.50
2010,10,15,13,31,12.50
2010,10,15,13,32,12.50
2010,10,15,13,33,12.50
2010,10,15,13,34,12.40
2010,10,15,13,35,12.40
2010,10,15,13,36,12.30
2010,10,15,13,37,12.30
2010,10,15,13,38,12.30
2010,10,15,13,39,12.30
2010,10,15,13,40,12.30
2010,10,15,13,41,12.30
2010,10,15,13,42,12.20
2010,10,15,13,43,12.20
2010,10,15,13,44,12.30
2010,10,15,13,45,12.30
2010,10,15,13,46,12.30
2010,10,15,13,47,12.40
2010,10,15,13,48,12.40
2010,10,15,13,49,12.40
2010,10,15,13,50,12.30
2010,10,15,13,51,12.30
2010,10,15,13,52,12.40
2010,10,15,13,53,12.40
2010,10,15,13,54,12.50
2010,10,15,13,55,12.50
2010,10,15,13,56,12.60
2010,10,15,13,57,12.60
2010,10,15,13,58,12.70
2010,10,15,13,59,12.70
2010,10,15,14,00,12.70
2010,10,15,14,01,12.60
2010,10,15,14,02,12.60
2010,10,15,14,03,12.50
2010,10,15,14,04,12.50
2010,10,15,14,05,12.50
2010,10,15,14,06,12.60
2010,10,15,14,07,12.60
2010,10,15,14,08,12.60
2010,10,15,14,09,12.70
2010,10,15,14,10,12.70
2010,10,15,14,11,12.70
2010,10,15,14,12,12.80
2010,10,15,14,13,12.80
2010,10,15,14,14,12.70
2010,10,15,14,15,12.70
2010,10,15,14,16,12.70
2010,10,15,14,17,12.60
2010,10,15,14,18,12.60
2010,10,15,14,19,12.50
2010,10,15,14,20,12.40
2010,10,15,14,21,12.30
2010,10,15,14,22,12.30
2010,10,15,14,23,12.30
2010,10,15,14,24,12.30
2010,10,15,14,25,12.30
2010,10,15,14,26,12.30
2010,10,15,14,27,12.40
2010,10,15,14,28,12.40
2010,10,15,14,29,12.40
2010,10,15,14,30,12.40
2010,10,15,14,31,12.40
2010,10,15,14,32,12.50
2010,10,15,14,33,12.50
2010,10,15,14,34,12.50
2010,10,15,14,35,12.50
2010,10,15,14,36,12.50
2010,10,15,14,37,12.50
2010,10,15,14,38,12.50
2010,10,15,14,39,12.40
2010,10,15,14,40,12.50
2010,10,15,14,41,12.50
2010,10,15,14,42,12.50
2010,10,15,14,43,12.40
2010,10,15,14,44,12.40
2010,10,15,14,45,12.50
2010,10,15,14,46,12.50
2010,10,15,14,47,12.50
2010,10,15,14,48,12.50
2010,10,15,14,49,12.50
2010,10,15,14,50,12.50
2010,10,15,14,51,12.50
2010,10,15,14,52,12.40
2010,10,15,14,53,12.30
2010,10,15,14,54,12.30
2010,10,15,14,55,12.30
2010,10,15,14,56,12.30
2010,10,15,14,57,12.30
2010,10,15,14,58,12.30
2010,10,15,14,59,12.30
2010,10,15,15,00,12.30
2010,10,15,15,01,12.30
2010,10,15,15,02,12.40
2010,10,15,15,03,12.40
2010,10,15,15,04,12.40
2010,10,15,15,05,12.40
2010,10,15,15,06,12.40
2010,10,15,15,07,12.40
2010,10,15,15,08,12.30
2010,10,15,15,09,12.40
2010,10,15,15,10,12.50
2010,10,15,15,11,12.50
2010,10,15,15,12,12.50
2010,10,15,15,13,12.50
2010,10,15,15,14,12.50
2010,10,15,15,15,12.50
2010,10,15,15,16,12.50
2010,10,15,15,17,12.50
2010,10,15,15,18,12.40
2010,10,15,15,19,12.40
2010,10,15,15,20,12.40
2010,10,15,15,21,12.30
2010,10,15,15,22,12.30
2010,10,15,15,23,12.30
2010,10,15,15,24,12.30
2010,10,15,15,25,12.30
2010,10,15,15,26,12.30
2010,10,15,15,27,12.30
2010,10,15,15,28,12.30
2010,10,15,15,29,12.30
2010,10,15,15,30,12.30
2010,10,15,15,31,12.20
2010,10,15,15,32,12.20
2010,10,15,15,33,12.20
2010,10,15,15,34,12.20
2010,10,15,15,35,12.20
2010,10,15,15,36,12.20
2010,10,15,15,37,12.10
2010,10,15,15,38,12.10
2010,10,15,15,39,12.10
2010,10,15,15,40,12.10
2010,10,15,15,41,12.10
2010,10,15,15,42,12.00
2010,10,15,15,43,12.00
2010,10,15,15,44,12.00
2010,10,15,15,45,12.10
2010,10,15,15,46,12.10
2010,10,15,15,47,12.20
2010,10,15,15,48,12.20
2010,10,15,15,49,12.30
2010,10,15,15,50,12.30
2010,10,15,15,51,12.30
2010,10,15,15,52,12.30
2010,10,15,15,53,12.30
2010,10,15,15,54,12.20
2010,10,15,15,55,12.30
2010,10,15,15,56,12.30
2010,10,15,15,57,12.30
2010,10,15,15,58,12.30
2010,10,15,15,59,12.30
2010,10,15,16,00,12.30
2010,10,15,16,01,12.30
2010,10,15,16,02,12.30
2010,10,15,16,03,12.30
2010,10,15,16,04,12.20
2010,10,15,16,05,12.20
2010,10,15,16,06,12.10
2010,10,15,16,07,12.10
2010,10,15,16,08,12.10
2010,10,15,16,09,12.00
2010,10,15,16,10,12.00
2010,10,15,16,11,12.00
2010,10,15,16,12,12.00
2010,10,15,16,13,11.90
2010,10,15,16,14,11.90
2010,10,15,16,15,11.90
2010,10,15,16,16,11.90
2010,10,15,16,17,11.90
2010,10,15,16,18,11.90
2010,10,15,16,19,11.80
2010,10,15,16,20,11.80
2010,10,15,16,21,11.80
2010,10,15,16,22,11.80
2010,10,15,16,23,11.90
2010,10,15,16,24,11.90
2010,10,15,16,25,11.90
2010,10,15,16,26,11.90
2010,10,15,16,27,11.90
2010,10,15,16,28,11.90
2010,10,15,16,29,11.90
2010,10,15,16,30,11.90
2010,10,15,16,31,11.80
2010,10,15,16,32,11.80
2010,10,15,16,33,11.80
2010,10,15,16,34,11.80
2010,10,15,16,35,11.80
2010,10,15,16,36,11.80
2010,10,15,16,37,11.80
2010,10,15,16,38,11.80
2010,10,15,16,39,11.80
2010,10,15,16,40,11.90
2010,10,15,16,41,11.90
2010,10,15,16,42,11.90
2010,10,15,16,43,11.90
2010,10,15,16,44,11.90
2010,10,15,16,45,11.90
2010,10,15,16,46,11.90
2010,10,15,16,47,12.00
2010,10,15,16,48,12.00
2010,10,15,16,49,12.00
2010,10,15,16,50,12.00
2010,10,15,16,51,12.10
2010,10,15,16,52,12.10
2010,10,15,16,53,12.10
2010,10,15,16,54,12.10
2010,10,15,16,55,12.10
2010,10,15,16,56,12.10
2010,10,15,16,57,12.10
2010,10,15,16,58,12.00
2010,10,15,16,59,12.00
2010,10,15,17,00,12.00
2010,10,15,17,01,12.00
2010,10,15,17,02,11.90
2010,10,15,17,03,11.90
2010,10,15,17,04,11.90
2010,10,15,17,05,11.90
2010,10,15,17,06,11.80
2010,10,15,17,07,11.80
2010,10,15,17,08,11.80
2010,10,15,17,09,11.80
2010,10,15,17,10,11.80
2010,10,15,17,11,11.80
2010,10,15,17,12,11.80
2010,10,15,17,13,11.80
2010,10,15,17,14,11.80
2010,10,15,17,15,11.80
2010,10,15,17,16,11.70
2010,10,15,17,17,11.70
2010,10,15,17,18,11.70
2010,10,15,17,19,11.60
2010,10,15,17,20,11.60
2010,10,15,17,21,11.60
2010,10,15,17,22,11.60
2010,10,15,17,23,11.60
2010,10,15,17,24,11.50
2010,10,15,17,25,11.40
2010,10,15,17,26,11.40
2010,10,15,17,27,11.40
2010,10,15,17,28,11.40
2010,10,15,17,29,11.40
2010,10,15,17,30,11.40
2010,10,15,17,31,11.40
2010,10,15,17,32,11.30
2010,10,15,17,33,11.30
2010,10,15,17,34,11.30
2010,10,15,17,35,11.30
2010,10,15,17,36,11.20
2010,10,15,17,37,11.20
2010,10,15,17,38,11.20
2010,10,15,17,39,11.20
2010,10,15,17,40,11.20
2010,10,15,17,41,11.20
2010,10,15,17,42,11.20
2010,10,15,17,43,11.10
2010,10,15,17,44,11.10
2010,10,15,17,45,11.10